FW6707 Weather Reports


Display with metric or nautical units.
time (UTC)temp
F
wind
direction
speed
MPH
gust
MPH
rain 1hr
in
rain 24hr
in
rain mn
in
humidity
%
barometer
mb
20260506094503 59 246 10.0 22.0 0.00 0.00 0.00 77 1014.1
20260506093002 59 267 14.0 25.0 0.00 0.00 0.00 78 1014.0
20260506091559 58 281 12.0 22.0 0.00 0.00 0.00 78 1014.0
20260506090058 57 284 8.0 25.0 0.00 0.00 0.00 80 1013.5
20260506084603 56 261 11.0 20.0 0.00 0.00 0.00 80 1013.3
20260506083056 56 236 12.0 19.0 0.00 0.00 0.00 81 1013.3
20260506081554 56 275 9.0 19.0 0.00 0.00 0.00 81 1013.4
20260506073051 56 280 6.0 18.0 0.00 0.00 0.00 80 1013.5
20260506071556 57 257 8.0 14.0 0.00 0.00 0.00 80 1013.5
20260506061545 56 240 8.0 15.0 0.00 0.00 0.00 78 1013.6
20260506044543 55 268 7.0 13.0 0.00 0.00 0.00 79 1013.8
20260506043034 56 270 9.0 19.0 0.00 0.00 0.00 78 1013.7
20260506041531 57 291 8.0 17.0 0.00 0.00 0.00 77 1013.5
20260506040029 57 251 12.0 24.0 0.00 0.00 0.00 76 1013.3
20260506034526 58 240 15.0 28.0 0.00 0.00 0.00 74 1013.1
20260506033031 59 260 11.0 22.0 0.00 0.00 0.00 72 1013.1
20260506031529 60 240 12.0 29.0 0.00 0.00 0.00 70 1012.9
20260506030038 60 302 11.0 21.0 0.00 0.00 0.00 71 1012.7
20260506024524 59 283 11.0 20.0 0.00 0.00 0.00 72 1012.6
20260506023014 58 272 11.0 24.0 0.00 0.00 0.00 72 1013.0
20260506021513 58 246 8.0 25.0 0.00 0.00 0.00 73 1012.9
20260506020012 58 242 9.0 17.0 0.00 0.00 0.00 72 1012.9
20260506014511 58 243 8.0 18.0 0.00 0.00 0.00 71 1012.9
20260506013011 59 298 11.0 25.0 0.00 0.00 0.00 70 1012.9
20260506011511 59 240 5.0 19.0 0.00 0.00 0.00 69 1012.7
20260506010009 59 257 8.0 15.0 0.00 0.00 0.00 67 1012.6
20260506004519 59 262 13.0 23.0 0.00 0.00 0.00 65 1012.5
20260506003006 60 242 10.0 19.0 0.00 0.00 0.00 64 1012.3
20260506001506 61 309 11.0 25.0 0.00 0.00 0.00 61 1012.2
20260506000006 61 297 10.0 25.0 0.00 0.00 0.00 59 1011.8
20260505234602 62 246 10.0 23.0 0.00 0.00 0.00 57 1011.3
20260505233127 63 250 10.0 20.0 0.00 0.00 0.00 55 1011.2
20260505231558 64 259 11.0 19.0 0.00 0.00 0.00 53 1010.9
20260505230057 65 251 9.0 22.0 0.00 0.00 0.00 51 1010.6
20260505224558 66 259 6.0 19.0 0.00 0.00 0.00 50 1010.6
20260505223055 67 200 5.0 18.0 0.00 0.00 0.00 49 1010.9
20260505221601 68 235 8.0 17.0 0.00 0.00 0.00 48 1010.8
20260505220054 68 282 6.0 14.0 0.00 0.00 0.00 48 1010.6
20260505214553 70 186 4.0 16.0 0.00 0.00 0.00 46 1010.4
20260505213054 71 244 4.0 17.0 0.00 0.00 0.00 45 1010.3
20260505211651 71 235 8.0 15.0 0.00 0.00 0.00 44 1010.3
20260505210049 73 219 3.0 15.0 0.00 0.00 0.00 44 1010.4
20260505204548 73 311 5.0 15.0 0.00 0.00 0.00 43 1010.3
20260505203051 74 190 7.0 16.0 0.00 0.00 0.00 42 1010.1
20260505201548 74 174 9.0 20.0 0.00 0.00 0.00 42 1009.8
20260505200043 75 221 5.0 17.0 0.00 0.00 0.00 43 1009.8
20260505194548 76 215 8.0 22.0 0.00 0.00 0.00 41 1009.7
20260505193140 77 190 10.0 20.0 0.00 0.00 0.00 40 1009.4
20260505191639 78 250 5.0 15.0 0.00 0.00 0.00 33 1009.3
20260505190040 77 243 7.0 22.0 0.00 0.00 0.00 32 1009.3
20260505184533 77 219 9.0 22.0 0.00 0.00 0.00 34 1009.3
20260505183031 77 252 5.0 13.0 0.00 0.00 0.00 35 1009.3
20260505181532 76 244 9.0 25.0 0.00 0.00 0.00 36 1009.5
20260505180036 76 240 11.0 22.0 0.00 0.00 0.00 35 1009.4
20260505174525 75 241 7.0 20.0 0.00 0.00 0.00 40 1009.6
20260505173023 74 233 11.0 22.0 0.00 0.00 0.00 40 1009.7
20260505171521 74 213 8.0 22.0 0.00 0.00 0.00 40 1009.7
20260505170019 74 182 6.0 25.0 0.00 0.01 0.00 42 1009.8
20260505164517 73 307 7.0 18.0 0.00 0.01 0.00 44 1009.8
20260505163014 72 217 3.0 23.0 0.00 0.01 0.00 46 1009.7
20260505161510 71 190 8.0 19.0 0.00 0.01 0.00 48 1009.7
20260505153002 68 232 6.0 14.0 0.00 0.16 0.00 51 1010.0
20260505151603 67 211 8.0 20.0 0.00 0.16 0.00 53 1009.9
20260505124530 57 259 4.0 13.0 0.00 0.35 0.00 63 1010.6
20260505123026 56 203 6.0 14.0 0.00 0.35 0.00 65 1010.4
20260505121524 56 254 5.0 12.0 0.00 0.35 0.00 66 1010.3
20260505120034 55 159 2.0 11.0 0.00 0.35 0.00 69 1009.9
20260505114516 54 260 3.0 11.0 0.00 0.35 0.00 72 1010.0
20260505113014 53 211 4.0 10.0 0.00 0.35 0.00 75 1009.9
20260505111522 51 238 6.0 10.0 0.00 0.35 0.00 77 1010.0
20260505101559 48 262 4.0 11.0 0.00 0.38 0.00 81 1009.5
20260505100058 47 296 4.0 13.0 0.00 0.38 0.00 82 1009.3